Time[GMT],air_temperature[C](-3m),wind_speed[m/s](-4m),wind_gust[m/s](-4m),wind_direction[degrees](-4m),visibility[m](-3m),barometric_pressure[millibars](-3m)
2004-10-06 14:00,8.2,5.7,7.7,214,2963,1028.00
2004-10-06 15:00,8.8,6.4,8.1,219,2951,1027.94
2004-10-06 16:00,9.0,7.1,9.0,215,2921,1027.28
2004-10-06 17:00,9.6,7.0,8.6,219,2903,1026.44
2004-10-06 18:00,10.5,8.2,9.6,218,2962,1025.24
2004-10-06 19:00,10.7,9.3,11.1,219,2962,1024.58
2004-10-06 20:00,10.9,9.0,10.6,229,2962,1024.52
2004-10-06 21:00,11.2,8.0,9.8,226,2614,1023.92
2004-10-06 22:00,11.3,8.0,10.0,226,2897,1024.04
2004-10-06 23:00,11.6,6.7,8.4,223,2962,1024.58
2004-10-07 00:00,11.8,6.1,7.2,225,2962,1024.70
2004-10-07 01:00,12.1,6.4,8.1,228,2962,1024.94
2004-10-07 02:00,12.1,4.3,5.2,223,2962,1025.18
2004-10-07 03:00,12.0,3.0,3.8,229,2962,1025.18
2004-10-07 04:00,11.9,3.0,3.3,228,2962,1025.06
2004-10-07 05:00,11.5,2.7,3.2,256,2962,1024.70
2004-10-07 06:00,10.5,2.5,2.9,275,2962,1024.76
2004-10-07 07:00,10.3,4.0,4.5,277,2962,1024.58
2004-10-07 08:00,9.8,2.6,3.4,256,2962,1024.82
2004-10-07 09:00,9.7,2.9,3.4,264,2962,1025.24
2004-10-07 10:00,10.4,2.3,2.6,238,2962,1025.54
2004-10-07 11:00,9.0,2.8,3.7,269,2962,1026.38
2004-10-07 12:00,11.2,1.6,2.1,  6,2962,1027.04
2004-10-07 13:00,13.4,0.1,0.7,297,2962,1027.76
2004-10-07 14:00,12.4,0.2,0.5,278,2962,1028.24
2004-10-07 15:00,12.8,0.8,1.1,172,2962,1028.06
2004-10-07 16:00,12.6,2.8,3.5,206,2957,1027.76
2004-10-07 17:00,13.3,3.6,4.2,196,2953,1027.28
2004-10-07 18:00,12.9,5.2,5.8,204,2962,1026.86
2004-10-07 19:00,13.0,4.3,5.0,216,2938,1026.74
2004-10-07 20:00,13.2,5.2,6.3,212,2959,1026.80
2004-10-07 21:00,13.1,3.9,4.4,224,2494,1026.98
2004-10-07 22:00,13.1,1.9,2.6,238,2962,1027.04
2004-10-07 23:00,12.6,3.7,4.3,214,2961,1027.28
2004-10-08 00:00,12.4,3.2,3.8,219,2961,1027.64
2004-10-08 01:00,12.1,2.3,2.8,222,2961,1027.88
2004-10-08 02:00,12.1,3.3,3.8,230,2961,1028.00
2004-10-08 03:00,12.1,1.8,2.5,199,2962,1027.94
2004-10-08 04:00,11.9,2.2,2.5,209,2962,1028.00
2004-10-08 05:00,12.0,2.7,3.3,216,2962,1028.12
2004-10-08 06:00,11.9,2.4,2.7,199,2962,1027.88
2004-10-08 07:00,11.9,1.7,2.2,200,2962,1027.70
2004-10-08 08:00,11.7,2.0,2.2,198,2962,1027.58
2004-10-08 09:00,11.9,2.8,3.2,211,2962,1027.40
2004-10-08 10:00,12.0,2.6,3.0,216,2962,1027.34
2004-10-08 11:00,11.7,0.6,1.8,281,2911,1027.58
2004-10-08 12:00,11.6,0.6,1.1,255,2962,1027.76
2004-10-08 13:00,12.4,2.8,3.4,195,2962,1028.06
2004-10-08 14:00,12.3,5.3,6.1,238,1271,1028.06
2004-10-08 15:00,12.2,4.3,5.1,217, 574,1027.94
2004-10-08 16:00,12.0,5.3,6.4,206, 403,1027.40
2004-10-08 17:00,12.3,6.0,7.2,211, 241,1026.68
2004-10-08 18:00,12.4,5.4,6.5,216, 267,1026.02
2004-10-08 19:00,12.7,5.3,6.8,219, 327,1025.66
2004-10-08 20:00,12.4,3.3,4.3,191, 141,1025.00
2004-10-08 21:00,12.0,2.8,3.2,196, 403,1024.70
2004-10-08 22:00,12.0,2.3,2.6,209,2961,1024.58
2004-10-08 23:00,12.1,2.5,2.9,202,2961,1024.52
2004-10-09 00:00,12.5,2.8,3.5,212,2961,1024.46
2004-10-09 01:00,12.6,2.3,3.2,213,2962,1024.52
2004-10-09 02:00,12.7,3.3,3.8,228,2962,1024.46
2004-10-09 03:00,12.9,6.1,7.2,201,2961,1023.74
2004-10-09 04:00,13.0,5.7,6.6,211,2961,1023.38
2004-10-09 05:00,12.9,5.8,6.7,215,2962,1023.20
2004-10-09 06:00,12.9,6.4,7.4,215,2962,1022.54
2004-10-09 07:00,12.8,6.2,7.3,222,2961,1021.94
2004-10-09 08:00,12.8,5.5,6.4,212,2961,1021.70
2004-10-09 09:00,12.6,4.8,5.6,206,2961,1021.22
2004-10-09 10:00,12.7,5.6,6.7,222,2961,1021.04
2004-10-09 11:00,12.7,7.0,8.1,216,2961,1020.80
2004-10-09 12:00,12.8,7.1,8.1,210,2961,1020.86
2004-10-09 13:00,12.7,6.2,7.2,215,2962,1021.10
2004-10-09 14:00,12.9,6.7,7.8,206,2942,1020.80
2004-10-09 15:00,13.1,6.4,7.3,209,2958,1020.62
2004-10-09 16:00,13.2,6.7,7.7,211,2898,1020.14
2004-10-09 17:00,12.9,6.5,7.5,206,2962,1019.48
2004-10-09 18:00,13.2,5.9,6.9,213,2944,1018.70
2004-10-09 19:00,13.3,5.6,6.5,217,2947,1018.52
2004-10-09 20:00,13.4,6.6,7.5,209,2916,1017.74
2004-10-09 21:00,13.2,6.1,7.2,207,2962,1017.50
2004-10-09 22:00,13.3,8.1,9.3,193,2960,1016.66
2004-10-09 23:00,13.6,7.3,8.4,195,2961,1016.54
2004-10-10 00:00,13.4,6.8,7.9,194,2961,1016.24
2004-10-10 01:00,13.1,4.9,5.7,214,2961,1016.42
2004-10-10 02:00,13.1,5.1,5.8,208,2961,1016.48
2004-10-10 03:00,13.1,6.0,7.1,201,2961,1015.94
2004-10-10 04:00,13.4,6.9,7.7,205,2962,1015.34
2004-10-10 05:00,13.5,6.7,8.3,208,2961,1014.74
2004-10-10 06:00,12.9,4.8,5.6,217,2961,1014.62
2004-10-10 07:00,13.0,5.8,7.0,211,2961,1013.60
2004-10-10 08:00,12.8,5.9,6.6,221,2961,1013.24
2004-10-10 09:00,13.0,4.3,4.9,222,2960,1013.48
2004-10-10 10:00,12.9,4.1,4.7,236,2846,1013.24
2004-10-10 11:00,12.6,3.0,3.6,228,2519,1013.60
2004-10-10 12:00,12.3,2.0,2.6,216,2294,1013.72
2004-10-10 13:00,12.3,2.0,2.6,243,2272,1013.66
2004-10-10 14:00,12.4,1.0,1.7,273,2428,1013.78
2004-10-10 15:00,13.0,2.0,2.2,340,2913,1013.84
2004-10-10 16:00,13.0,1.2,1.9, 22,2709,1013.48
2004-10-10 17:00,13.5,1.7,1.9,  3,2961,1012.76
2004-10-10 18:00,13.6,1.5,1.8,334,2962,1012.16
2004-10-10 19:00,13.4,2.4,2.9,357,2962,1011.38
2004-10-10 20:00,13.7,1.6,1.9,326,2961,1011.08
2004-10-10 21:00,14.1,2.1,2.7,343,2960,1010.90
2004-10-10 22:00,12.0,2.9,3.9,163,  97,1011.02
2004-10-10 23:00,11.6,1.8,2.3,262,2491,1012.16
2004-10-11 00:00,13.6,7.1,8.7,357,2961,1012.22
2004-10-11 01:00,12.9,7.0,8.4,  8,2961,1012.46
2004-10-11 02:00,12.8,8.2,10.4,  3,2961,1012.28
2004-10-11 03:00,12.8,7.4,9.2,358,2961,1011.98
2004-10-11 04:00,12.3,7.8,9.1, 15,2961,1011.98
2004-10-11 05:00,11.9,7.8,9.7,  6,2961,1011.92
2004-10-11 06:00,11.9,7.6,9.2,  4,2961,1011.56
2004-10-11 07:00,11.9,9.6,11.8, 12,2962,1011.14
2004-10-11 08:00,11.7,10.5,12.4, 10,2961,1011.38
2004-10-11 09:00,11.7,10.8,12.4, 14,2962,1011.38
2004-10-11 10:00,11.7,11.0,13.8, 14,2961,1011.86
2004-10-11 11:00,11.6,11.7,13.6, 15,2961,1011.92
2004-10-11 12:00,11.4,10.8,12.8, 17,2962,1012.46
2004-10-11 13:00,11.3,11.7,14.1, 16,2960,1012.34
2004-10-11 14:00,11.5,11.6,13.9, 13,2962,1012.04
2004-10-11 15:00,11.7,11.2,13.6, 15,2962,1012.22
2004-10-11 16:00,12.1,9.4,11.5, 14,2962,1011.74
2004-10-11 17:00,12.8,7.1,9.9, 26,2962,1011.62
2004-10-11 18:00,13.0,8.8,10.6, 28,2962,1010.96
2004-10-11 19:00,13.6,8.1,9.6, 10,2962,1010.66
2004-10-11 20:00,14.1,10.0,11.8, 15,2962,1009.88
2004-10-11 21:00,13.9,10.1,11.9,  6,2962,1009.34
2004-10-11 22:00,13.6,11.4,14.0,  4,2961,1008.44
2004-10-11 23:00,13.3,12.2,14.1,  1,2961,1007.54
2004-10-12 00:00,12.8,11.1,13.9,352,2961,1006.94
2004-10-12 01:00,12.4,11.9,14.9,355,2961,1006.28
2004-10-12 02:00,12.2,12.6,15.0,357,2962,1005.08
2004-10-12 03:00,11.8,12.7,16.3,352,2962,1003.34
2004-10-12 04:00,11.4,13.7,15.6,342,2944,1001.60
2004-10-12 05:00,11.2,13.4,16.1,338,2370,1000.28
2004-10-12 06:00,10.6,13.4,16.1,338,2063,998.90
2004-10-12 07:00,10.2,15.9,19.9,337,2784,996.73
2004-10-12 08:00,10.2,15.5,19.4,343,1880,995.89
2004-10-12 09:00,9.4,13.7,17.0,351,2528,994.81
2004-10-12 10:00,9.8,13.7,16.5,352,2372,994.81
2004-10-12 11:00,9.1,12.7,15.5,344,2625,993.37
2004-10-12 12:00,9.4,13.0,16.2,347,2862,994.09
2004-10-12 13:00,9.3,13.7,16.3,349,2647,994.57
2004-10-12 14:00,9.5,13.7,16.8,357,2740,994.93
2004-10-12 15:00,10.1,13.2,15.4,358,2957,995.23
2004-10-12 16:00,10.3,13.7,16.2,357,2962,995.53
2004-10-12 17:00,10.6,12.6,15.2,356,2962,995.17
2004-10-12 18:00,10.7,13.4,17.4,353,2962,995.35
2004-10-12 19:00,11.3,12.3,15.5,354,2962,995.11
2004-10-12 20:00,11.2,10.5,14.1,352,2962,995.83
2004-10-12 21:00,11.0,11.9,15.7,354,2962,995.47
2004-10-12 22:00,11.0,12.2,15.1,355,2961,995.23
2004-10-12 23:00,10.8,11.9,15.6,353,2962,997.27
2004-10-13 00:00,10.9,11.5,14.2,358,2961,997.58
2004-10-13 01:00,10.9,12.1,15.9,350,2961,998.00
2004-10-13 02:00,11.1,11.6,14.1,346,2962,998.18
2004-10-13 03:00,11.7,10.5,12.4,351,2961,998.00
2004-10-13 04:00,11.6,7.3,9.1,333,2962,998.12
2004-10-13 05:00,11.7,8.1,10.0,317,2961,998.24
2004-10-13 06:00,11.9,5.7,8.9,330,2961,998.90
2004-10-13 07:00,10.7,1.7,3.7,253,2961,999.38
2004-10-13 08:00,11.2,4.1,5.2,309,2962,999.98
2004-10-13 09:00,11.6,7.3,8.8,325,2961,999.92
2004-10-13 10:00,11.6,7.4,9.3,325,2961,1000.28
2004-10-13 11:00,10.6,4.0,6.0,284,2962,1000.76
2004-10-13 12:00,11.9,7.3,9.6,334,2962,1000.82
2004-10-13 13:00,12.1,8.2,9.6,346,2962,1000.88
2004-10-13 14:00,12.5,6.7,8.0,345,2962,1001.18
2004-10-13 15:00,12.8,5.1,6.8,  3,2962,1001.30
2004-10-13 16:00,13.1,2.8,3.9, 13,2962,1001.36
2004-10-13 17:00,13.5,1.8,3.1,150,2962,1001.12
2004-10-13 18:00,12.6,3.1,4.5,175,2962,1001.30
2004-10-13 19:00,12.8,3.5,4.7,187,2962,1001.36
2004-10-13 20:00,14.6,3.6,5.4,230,2962,1001.24
2004-10-13 21:00,14.2,4.7,5.9,238,2962,1001.78
2004-10-13 22:00,13.3,5.4,6.0,229,2960,1002.44
2004-10-13 23:00,12.9,5.4,6.4,235,2960,1002.98
2004-10-14 00:00,12.8,4.5,5.3,234,2960,1003.40
2004-10-14 01:00,12.4,3.7,4.2,243,2960,1003.52
2004-10-14 02:00,12.5,1.0,2.7,320,2961,1004.00
2004-10-14 03:00,12.0,1.9,2.6,264,2961,1004.06
2004-10-14 04:00,11.8,1.7,2.4, 18,2961,1004.18
2004-10-14 05:00,11.4,0.9,1.5,297,2961,1004.54
2004-10-14 06:00,11.5,1.8,2.1, 34,2961,1004.84
2004-10-14 07:00,11.0,1.3,1.9, 75,2961,1004.84
2004-10-14 08:00,10.8,1.7,2.0, 64,2961,1004.66
2004-10-14 09:00,10.8,2.4,2.9, 57,2961,1004.66
2004-10-14 10:00,10.5,2.4,2.8, 72,2961,1004.84
2004-10-14 11:00,10.6,1.0,1.9, 88,2961,1005.50
2004-10-14 12:00,10.7,2.6,2.9, 36,2962,1005.86
2004-10-14 13:00,10.9,2.4,2.7, 52,2962,1006.16
2004-10-14 14:00,11.1,1.4,1.8, 51,2962,1006.34
2004-10-14 15:00,11.9,1.7,2.0, 47,2962,1006.46
2004-10-14 16:00,12.6,1.8,2.3, 86,2962,1006.40
2004-10-14 17:00,12.1,2.7,3.5,104,2962,1006.10
2004-10-14 18:00,12.1,0.8,1.5, 24,2962,1005.80
2004-10-14 19:00,12.0,4.6,5.4,118,2962,1005.68
2004-10-14 20:00,12.6,4.0,5.0,106,2962,1005.50
2004-10-14 21:00,12.6,3.8,4.5,115,2961,1005.86
2004-10-14 22:00,12.2,4.2,4.9, 93,2960,1005.92
2004-10-14 23:00,11.8,3.8,4.7, 79,2960,1005.92
2004-10-15 00:00,11.9,5.0,6.0, 76,2960,1005.62
2004-10-15 01:00,11.9,4.1,5.0, 66,2960,1005.68
2004-10-15 02:00,12.1,3.9,4.5, 63,2960,1006.04
2004-10-15 03:00,12.2,5.7,6.7, 78,2960,1005.68
2004-10-15 04:00,12.1,6.1,7.2, 45,2662,1005.08
2004-10-15 05:00,12.3,5.5,6.9, 35,2960,1004.54
2004-10-15 06:00,11.7,6.5,7.2, 36,2960,1004.12
2004-10-15 07:00,12.2,6.3,7.6, 58,2960,1005.08
2004-10-15 08:00,12.0,6.7,8.4, 56,2953,1004.36
2004-10-15 09:00,12.1,7.6,9.9, 61,2960,1004.78
2004-10-15 10:00,12.2,8.3,9.8, 56,2647,1005.20
2004-10-15 11:00,11.8,5.7,7.1, 56,2960,1003.52
2004-10-15 12:00,11.7,6.3,8.3, 45,2960,1003.70
2004-10-15 13:00,11.6,4.4,6.3, 36,2960,1003.34
2004-10-15 14:00,11.4,5.0,6.0, 36,1872,1002.92
2004-10-15 15:00,11.9,5.3,6.9, 55,2060,1004.30
2004-10-15 16:00,11.7,3.6,4.8, 40,1353,1004.24
2004-10-15 17:00,12.0,7.3,8.3, 68,2310,1003.46
2004-10-15 18:00,12.0,7.8,9.1, 64,1960,1003.34
2004-10-15 19:00,11.9,6.7,7.9, 65,2960,1003.10
2004-10-15 20:00,11.7,6.2,7.5, 89,1195,1002.32
2004-10-15 21:00,11.4,4.6,5.5, 81, 738,1001.18
2004-10-15 22:00,11.5,2.4,3.4, 34, 352,1001.30
2004-10-15 23:00,11.8,1.9,3.0, 58, 486,1001.90
2004-10-16 00:00,11.7,3.4,3.8,102, 232,1002.20
2004-10-16 01:00,11.6,2.8,3.6,145, 155,1001.60
2004-10-16 02:00,11.4,5.4,6.2,169, 429,1001.18
2004-10-16 03:00,11.3,3.5,4.3,109, 201,1000.70
2004-10-16 04:00,11.6,5.6,6.5,111,1012,1001.24
2004-10-16 05:00,11.8,7.8,9.1,105,1620,999.50
2004-10-16 06:00,12.4,8.5,10.3,102,1786,996.91
2004-10-16 07:00,13.0,9.8,12.1,104,1443,994.57
2004-10-16 08:00,13.0,10.1,12.6,112,1985,993.01
2004-10-16 09:00,13.8,11.6,14.4,125,1503,990.07
2004-10-16 10:00,13.3,10.0,12.6,154,2021,988.57
2004-10-16 11:00,13.4,10.6,12.7,188,2146,988.99
2004-10-16 12:00,13.0,9.2,11.1,226,2700,987.37
2004-10-16 13:00,12.6,6.1,8.1,225,2859,986.47
2004-10-16 14:00,12.6,7.9,9.9,218,2916,987.85
2004-10-16 15:00,12.6,8.3,9.6,213,2960,990.55
2004-10-16 16:00,12.8,9.7,11.2,224,2960,991.87
2004-10-16 17:00,12.6,10.2,12.1,229,2608,993.73
2004-10-16 18:00,12.7,9.0,10.5,227,2817,994.75
2004-10-16 19:00,12.4,8.6,10.5,214,2962,995.77
2004-10-16 20:00,12.6,11.0,13.5,218,2940,997.40
2004-10-16 21:00,12.6,10.1,12.2,214,2961,998.36
2004-10-16 22:00,12.6,9.3,11.2,201,2960,998.96
2004-10-16 23:00,12.6,9.0,10.3,200,2960,999.50
2004-10-17 00:00,12.5,8.6,10.1,205,2922,999.50
2004-10-17 01:00,12.4,8.5,10.4,207,2906,999.44
2004-10-17 02:00,12.4,8.5,9.5,210,2917,999.08
2004-10-17 03:00,12.2,7.4,8.8,213,2883,1000.76
2004-10-17 04:00,11.9,5.9,7.0,207,2953,999.68
2004-10-17 05:00,11.9,4.9,5.6,199,2960,1000.88
2004-10-17 06:00,11.5,5.5,6.8,179,2930,1000.76
2004-10-17 07:00,11.8,7.1,8.1,182,2947,1000.88
2004-10-17 08:00,11.8,6.0,7.2,194,2960,1001.00
2004-10-17 09:00,11.7,6.8,7.8,201,2960,1000.88
2004-10-17 10:00,11.5,7.5,9.4,220,2960,1001.30
2004-10-17 11:00,11.4,7.7,9.6,228,2960,1001.84
2004-10-17 12:00,11.2,6.3,8.0,228,2962,1002.32
2004-10-17 13:00,11.1,7.5,9.2,235,2962,1002.86
2004-10-17 14:00,11.2,8.9,10.8,239,2962,1003.16
2004-10-17 15:00,11.2,9.0,11.3,237,2962,1003.22
2004-10-17 16:00,10.9,8.2,9.7,227,2962,1003.16
2004-10-17 17:00,10.8,8.3,10.1,222,2962,1003.10
2004-10-17 18:00,10.7,10.0,11.7,217,2795,1002.98
2004-10-17 19:00,10.7,10.3,11.9,216,2679,1003.34
2004-10-17 20:00,10.7,10.2,12.5,224,2753,1003.70
2004-10-17 21:00,10.7,8.9,10.6,226,2962,1004.36
2004-10-17 22:00,11.1,8.7,10.2,221,2960,1004.42
2004-10-17 23:00,11.5,8.1,9.6,232,2960,1004.96
2004-10-18 00:00,11.8,10.0,12.1,242,2960,1005.32
2004-10-18 01:00,11.6,9.4,11.8,247,2960,1005.92
2004-10-18 02:00,11.2,7.4,9.1,242,2960,1006.28
2004-10-18 03:00,10.6,6.7,8.6,254,2960,1004.84
2004-10-18 04:00,10.2,4.9,6.0,250,2960,1005.44
2004-10-18 05:00,9.8,7.5,9.2,267,2960,1006.82
2004-10-18 06:00,9.1,6.3,7.6,265,2960,1006.70
2004-10-18 07:00,8.6,6.4,7.6,268,2960,1007.60
2004-10-18 08:00,8.3,7.2,9.0,281,2960,1009.10
2004-10-18 09:00,8.1,6.2,7.6,262,2960,1009.58
2004-10-18 10:00,7.5,6.7,8.6,275,2961,1010.60
2004-10-18 11:00,7.5,6.2,7.2,262,2961,1011.68
2004-10-18 12:00,7.2,5.3,7.1,276,2488,1012.70
2004-10-18 13:00,8.0,6.3,7.5,285,2962,1013.42
2004-10-18 14:00,9.8,5.5,7.0,304,2962,1013.90
2004-10-18 15:00,10.3,5.2,6.7,300,2962,1013.78
2004-10-18 16:00,10.7,5.5,7.0,293,2962,1013.78
2004-10-18 17:00,11.2,3.8,4.6,279,2962,1013.72
2004-10-18 18:00,12.0,4.0,5.5,248,2862,1014.44
2004-10-18 19:00,10.7,6.4,7.7,232,2962,1015.16
2004-10-18 20:00,12.0,3.3,6.8,284,2962,1015.52
2004-10-18 21:00,12.0,4.3,5.0,328,2961,1016.12
2004-10-18 22:00,11.5,3.3,4.1,320,2960,1016.90
2004-10-18 23:00,10.9,4.2,5.1,303,2960,1017.98
2004-10-19 00:00,10.3,4.7,5.8,320,2960,1018.94
2004-10-19 01:00,10.1,5.8,7.1,349,2960,1019.54
2004-10-19 02:00,9.5,5.9,6.8,357,2960,1020.80
2004-10-19 03:00,9.1,4.7,5.3,344,2960,1021.04
2004-10-19 04:00,8.8,4.8,6.3,  2,2960,1020.98
2004-10-19 05:00,8.5,5.0,6.1,358,2960,1020.74
2004-10-19 06:00,8.1,3.6,4.5,339,2960,1021.10
2004-10-19 07:00,8.0,4.0,4.8,345,2960,1021.28
2004-10-19 08:00,7.8,4.1,5.0,348,2960,1021.40
2004-10-19 09:00,7.9,3.7,4.8,  4,2960,1021.76
2004-10-19 10:00,7.8,4.7,5.9, 11,2960,1022.06
2004-10-19 11:00,7.2,5.2,6.2, 26,2960,1022.66
2004-10-19 12:00,7.0,4.9,6.2, 22,2961,1023.14
2004-10-19 13:00,7.1,5.5,6.6, 30,2962,1023.32
2004-10-19 14:00,7.4,4.8,5.9, 46,2962,1023.62
2004-10-19 15:00,7.6,4.9,5.8, 30,2962,1023.56
2004-10-19 16:00,8.1,3.1,4.0, 35,2962,1023.50
2004-10-19 17:00,9.4,1.5,2.7, 29,2962,1022.72
2004-10-19 18:00,9.2,1.7,2.3,150,2962,1022.84
2004-10-19 19:00,9.6,0.7,1.2,182,2962,1022.90
2004-10-19 20:00,9.3,0.1,0.5,167,2962,1023.14
2004-10-19 21:00,8.9,1.1,1.7,107,2962,1023.14
2004-10-19 22:00,8.9,1.2,1.6,107,2960,1023.08
2004-10-19 23:00,9.0,0.7,1.5, 44,2960,1023.02
2004-10-20 00:00,9.4,2.7,3.3, 25,2960,1023.02
2004-10-20 01:00,10.1,3.6,4.4, 36,2960,1023.38
2004-10-20 02:00,9.7,5.0,5.6, 36,2960,1023.50
2004-10-20 03:00,9.6,5.2,6.3, 38,2960,1023.74
2004-10-20 04:00,9.1,6.3,7.4, 37,2960,1023.56
2004-10-20 05:00,8.3,6.9,8.4, 42,2960,1023.68
2004-10-20 06:00,7.4,8.3,9.7, 37,2960,1023.62
2004-10-20 07:00,7.1,9.6,11.4, 38,2960,1023.02
2004-10-20 08:00,6.8,8.8,11.6, 42,2960,1022.84
2004-10-20 09:00,6.6,8.2,9.9, 39,2960,1023.14
2004-10-20 10:00,6.6,8.8,10.4, 35,2960,1023.20
2004-10-20 11:00,6.4,9.4,10.6, 28,2960,1023.38
2004-10-20 12:00,6.1,10.1,11.8, 28,2961,1023.86
2004-10-20 13:00,6.2,9.5,11.4, 36,2888,1024.04
2004-10-20 14:00,6.3,7.3,9.1, 32,2962,1024.34
2004-10-20 15:00,6.6,6.6,7.4, 28,2962,1024.22
2004-10-20 16:00,7.3,5.0,6.5, 25,2948,1024.10
2004-10-20 17:00,8.0,5.2,6.3, 24,2962,1023.26
2004-10-20 18:00,9.0,5.0,6.2, 15,2908,1022.96
2004-10-20 19:00,9.2,4.8,5.9, 19,2962,1022.36
2004-10-20 20:00,9.6,4.4,5.3, 17,2962,1021.88
2004-10-20 21:00,10.0,5.6,6.7, 18,2962,1021.64
2004-10-20 22:00,10.1,5.6,6.6, 16,2960,1021.88
2004-10-20 23:00,9.9,6.5,7.5, 14,2960,1022.00
2004-10-21 00:00,9.4,5.5,7.3, 53,2960,1022.18
2004-10-21 01:00,8.8,3.6,4.3, 59,2960,1022.60
2004-10-21 02:00,8.7,6.1,6.9, 39,2960,1022.30
2004-10-21 03:00,8.4,6.3,7.1, 44,2960,1022.60
2004-10-21 04:00,8.0,5.7,6.6, 58,2960,1022.48
2004-10-21 05:00,7.6,6.3,7.2, 47,2960,1022.48
2004-10-21 06:00,7.5,6.2,7.1, 51,2960,1022.36
2004-10-21 07:00,7.6,6.2,7.2, 48,2960,1022.12
2004-10-21 08:00,7.2,7.3,8.1, 58,2960,1022.00
2004-10-21 09:00,7.2,5.8,6.6, 55,2960,1022.36
2004-10-21 10:00,6.8,6.1,7.4, 47,2960,1022.96
2004-10-21 11:00,6.3,7.1,8.2, 39,2960,1022.96
2004-10-21 12:00,6.1,7.5,8.9, 35,2962,1023.74
2004-10-21 13:00,5.9,7.4,8.7, 31,2962,1024.34
2004-10-21 14:00,6.4,7.0,8.4, 28,2962,1024.52
2004-10-21 15:00,6.7,6.5,7.8, 32,2962,1024.58
2004-10-21 16:00,7.3,5.7,6.6, 18,2962,1024.64
2004-10-21 17:00,7.8,5.7,6.9, 23,2962,1024.28
2004-10-21 18:00,8.2,5.0,6.2, 22,2962,1023.86
2004-10-21 19:00,8.8,5.2,6.2, 15,2962,1023.74
2004-10-21 20:00,9.2,5.3,6.5, 14,2962,1023.74
2004-10-21 21:00,9.4,6.9,7.9, 13,2960,1023.86
2004-10-21 22:00,9.1,4.6,6.5, 92,2960,1024.46
2004-10-21 23:00,9.3,5.8,6.8, 56,2960,1024.70
2004-10-22 00:00,9.2,6.6,7.8, 53,2960,1024.88
2004-10-22 01:00,8.9,6.1,6.9, 34,2960,1025.12
2004-10-22 02:00,8.9,7.8,9.4, 40,2960,1025.06
2004-10-22 03:00,8.7,7.8,9.4, 36,2960,1025.00
2004-10-22 04:00,8.9,8.0,9.4, 33,2960,1024.82
2004-10-22 05:00,8.7,7.7,8.9, 41,2960,1024.94
2004-10-22 06:00,8.9,7.8,9.1, 40,2960,1025.06
2004-10-22 07:00,8.9,8.1,9.3, 36,2960,1025.00
2004-10-22 08:00,8.8,8.1,9.5, 42,2960,1024.76
2004-10-22 09:00,8.7,7.6,9.3, 43,2960,1025.12
2004-10-22 10:00,8.3,8.6,9.8, 41,2960,1025.30
2004-10-22 11:00,8.2,8.2,9.4, 37,2960,1025.84
2004-10-22 12:00,8.2,7.9,9.2, 38,2735,1026.68
2004-10-22 13:00,8.1,8.7,10.5, 39,2962,1027.04
2004-10-22 14:00,8.3,8.3,9.2, 42,2962,1027.16
2004-10-22 15:00,8.7,8.0,9.7, 34,2962,1026.86
2004-10-22 16:00,8.8,7.4,8.7, 34,2962,1026.86
2004-10-22 17:00,9.2,7.8,9.4, 29,2962,1026.14
2004-10-22 18:00,9.3,8.2,9.9, 33,2962,1025.96
2004-10-22 19:00,9.5,6.2,8.0, 45,2962,1025.96
2004-10-22 20:00,9.6,5.1,6.5, 51,2962,1026.08
2004-10-22 21:00,9.6,5.7,7.1, 44,2960,1025.96
2004-10-22 22:00,9.5,6.9,8.0, 33,2960,1026.20
2004-10-22 23:00,9.4,8.3,10.0, 34,2960,1026.08
2004-10-23 00:00,9.1,8.4,9.7, 38,2960,1025.90
2004-10-23 01:00,8.9,8.4,9.4, 38,2960,1026.38
2004-10-23 02:00,8.9,8.5,10.4, 41,2960,1026.02
2004-10-23 03:00,8.7,8.5,10.0, 40,2960,1025.66
2004-10-23 04:00,8.6,8.2,10.1, 42,2960,1025.48
2004-10-23 05:00,8.4,9.4,11.0, 38,2960,1024.82
2004-10-23 06:00,8.2,8.5,10.0, 45,2960,1025.36
2004-10-23 07:00,8.0,7.9,9.6, 49,2960,1024.82
2004-10-23 08:00,8.0,7.4,8.9, 52,2960,1024.70
2004-10-23 09:00,8.0,8.2,9.9, 47,2960,1024.52
2004-10-23 10:00,7.9,8.4,10.0, 46,2960,1024.88
2004-10-23 11:00,8.2,8.3,9.8, 34,2960,1025.12
2004-10-23 12:00,8.4,7.9,9.2, 34,2960,1025.72
2004-10-23 13:00,8.0,9.3,10.5, 25,2960,1024.94
2004-10-23 14:00,8.3,9.3,11.4, 33,2960,1024.82
2004-10-23 15:00,8.0,9.0,10.7, 23,2961,1024.58
2004-10-23 16:00,8.5,9.3,10.5, 19,2962,1024.04
2004-10-23 17:00,8.8,8.5,10.2, 27,2961,1023.62
2004-10-23 18:00,9.4,8.1,10.7, 41,2961,1023.26
2004-10-23 19:00,9.4,8.0,9.8, 55,2960,1023.20
2004-10-23 20:00,9.4,7.6,9.3, 41,2960,1022.54
2004-10-23 21:00,9.4,8.8,11.2, 34,2960,1021.64
2004-10-23 22:00,9.3,9.1,10.7, 33,2960,1021.70
2004-10-23 23:00,9.3,8.8,10.3, 35,2960,1021.64
2004-10-24 00:00,9.2,9.0,10.5, 37,2960,1021.10
2004-10-24 01:00,9.1,8.7,11.2, 40,2960,1020.56
2004-10-24 02:00,9.0,8.2,9.4, 36,2960,1020.26
2004-10-24 03:00,9.0,8.6,10.0, 34,2960,1019.84
2004-10-24 04:00,9.1,8.6,10.4, 32,2960,1019.72
2004-10-24 05:00,8.8,8.2,9.5, 27,2960,1019.06
2004-10-24 06:00,8.6,8.2,9.4, 39,2960,1018.40
2004-10-24 07:00,8.4,8.2,9.7, 37,2960,1017.98
2004-10-24 08:00,8.5,8.5,10.2, 34,2960,1017.80
2004-10-24 09:00,8.5,9.1,10.7, 27,2960,1017.26
2004-10-24 10:00,8.4,9.6,12.2, 26,2960,1017.14
2004-10-24 11:00,8.6,9.1,11.0, 28,2960,1017.44
2004-10-24 12:00,8.3,8.2,9.7, 38,2960,1018.04
2004-10-24 13:00,8.5,8.7,10.4, 49,2960,1018.22
2004-10-24 14:00,8.3,8.2,9.9, 41,2960,1018.10
2004-10-24 15:00,8.4,8.4,10.0, 44,2961,1017.74
2004-10-24 16:00,8.7,9.0,10.8, 46,2960,1017.08
2004-10-24 17:00,8.8,8.4,10.5, 49,2961,1016.78
2004-10-24 18:00,9.1,8.9,11.1, 44,2960,1016.54
2004-10-24 19:00,9.0,7.3,8.6, 42,2960,1016.78
2004-10-24 20:00,8.9,7.6,8.9, 49,2960,1016.66
2004-10-24 21:00,8.9,6.9,8.1, 39,2960,1016.78
2004-10-24 22:00,9.0,6.6,8.2, 38,2960,1017.08
2004-10-24 23:00,9.1,6.9,8.4, 41,2960,1017.02
2004-10-25 00:00,9.2,6.8,8.0, 50,2960,1016.96
2004-10-25 01:00,9.2,8.0,9.5, 46,2960,1016.78
2004-10-25 02:00,9.0,7.3,8.9, 36,2960,1016.60
2004-10-25 03:00,9.1,7.8,9.5, 45,2960,1016.42
2004-10-25 04:00,9.1,7.0,8.4, 40,2960,1016.66
2004-10-25 05:00,9.0,7.0,8.4, 49,2960,1016.90
2004-10-25 06:00,8.9,6.2,7.4, 37,2960,1016.90
2004-10-25 07:00,8.9,6.3,7.2, 36,2960,1017.02
2004-10-25 08:00,8.8,6.4,7.7, 33,2960,1016.78
2004-10-25 09:00,8.9,6.1,7.2, 26,2960,1016.66
2004-10-25 10:00,8.8,6.1,7.1, 32,2960,1016.72
2004-10-25 11:00,8.8,5.4,6.4, 28,2960,1016.96
2004-10-25 12:00,8.8,5.4,6.4, 39,2960,1017.44
2004-10-25 13:00,8.8,6.3,7.6, 35,2960,1017.68
2004-10-25 14:00,8.8,6.2,7.3, 32,2960,1017.74
2004-10-25 15:00,9.0,6.0,7.2, 30,2960,1017.32
2004-10-25 16:00,9.1,5.7,6.3, 24,2960,1017.38
2004-10-25 17:00,9.3,4.6,5.5, 14,2960,1017.20
2004-10-25 18:00,9.6,4.6,5.6, 33,2960,1016.90
2004-10-25 19:00,9.7,4.6,5.6, 55,2960,1016.90
2004-10-25 20:00,9.6,3.7,4.7, 78,2960,1017.32
2004-10-25 21:00,9.3,3.4,3.8, 71,2960,1017.50
2004-10-25 22:00,9.3,3.5,4.0, 53,2960,1017.56
2004-10-25 23:00,9.2,4.1,4.9, 60,2960,1017.56
2004-10-26 00:00,9.1,4.1,5.0, 30,2960,1017.62
2004-10-26 01:00,9.3,5.6,6.4,357,2960,1017.50
2004-10-26 02:00,9.3,6.0,7.3,  6,2960,1017.38
2004-10-26 03:00,9.4,6.9,8.3,360,2872,1017.20
2004-10-26 04:00,9.4,6.6,7.4, 13,2960,1016.84
2004-10-26 05:00,9.5,6.1,7.0, 12,2960,1016.90
2004-10-26 06:00,9.5,5.4,6.4, 18,2960,1017.14
2004-10-26 07:00,9.5,6.4,7.3,  4,2960,1017.14
2004-10-26 08:00,9.6,6.8,7.7,  6,2960,1017.08
2004-10-26 09:00,9.4,7.1,8.2,  8,2960,1017.14
2004-10-26 10:00,9.3,6.9,7.8,  4,2960,1017.38
2004-10-26 11:00,9.3,7.2,8.5, 20,2960,1017.56
2004-10-26 12:00,9.1,8.0,9.2, 23,2960,1017.68
2004-10-26 13:00,8.9,7.8,9.1, 16,2960,1018.04
2004-10-26 14:00,9.3,7.4,8.7,  2,2960,1017.74
2004-10-26 15:00,9.7,7.2,8.7,  4,2960,1017.32
2004-10-26 16:00,9.9,7.0,8.1, 30,2962,1017.56
2004-10-26 17:00,9.8,6.6,7.6, 33,2962,1017.32
2004-10-26 18:00,10.0,6.3,7.2, 36,2961,1016.96
2004-10-26 19:00,10.7,3.7,5.1, 45,2961,1016.96
2004-10-26 20:00,11.0,2.8,3.5, 49,2961,1016.78
2004-10-26 21:00,11.1,0.9,1.9, 12,2961,1016.96
2004-10-26 22:00,9.9,3.4,3.8,146,2960,1017.44
2004-10-26 23:00,9.8,1.2,2.0,203,2960,1017.68
2004-10-27 00:00,9.8,0.4,1.2,191,2960,1017.62
2004-10-27 01:00,9.9,2.3,3.7,326,2960,1018.10
2004-10-27 02:00,10.3,6.3,7.9, 21,2960,1017.74
2004-10-27 03:00,9.6,5.8,6.6, 10,2960,1017.92
2004-10-27 04:00,9.3,7.2,8.6, 25,2960,1017.56
2004-10-27 05:00,9.0,6.0,7.1, 11,2960,1017.68
2004-10-27 06:00,9.0,7.4,8.5, 17,2960,1017.80
2004-10-27 07:00,9.2,6.9,7.8, 18,2960,1017.62